Time,TemperatureF,DewpointF,PressureIn,WindDirection,WindDirectionDegrees,WindSpeedMPH,WindSpeedGustMPH,Humidity,HourlyPrecipIn,Conditions,Clouds,dailyrainin,SoftwareType,DateUTC
2013-09-01 00:43:00,77.0,-99.9,29.84,North,-999,-999.0,-999.0,-999,0.00,,,-99.99,,2013-09-01 04:43:00,
2013-09-01 00:52:00,77.0,-99.9,29.83,North,-999,-999.0,-999.0,-999,0.00,,,-99.99,,2013-09-01 04:52:00,
2013-09-01 01:43:00,77.0,-99.9,29.83,North,-999,-999.0,-999.0,-999,0.00,,,-99.99,,2013-09-01 05:43:00,
2013-09-01 01:52:00,76.0,-99.9,29.81,North,-999,-999.0,-999.0,-999,0.00,,,-99.99,,2013-09-01 05:52:00,
2013-09-01 02:42:00,76.0,-99.9,29.81,North,-999,-999.0,-999.0,-999,0.00,,,-99.99,,2013-09-01 06:42:00,
2013-09-01 02:52:00,76.0,-99.9,29.81,North,-999,-999.0,-999.0,-999,0.00,,,-99.99,,2013-09-01 06:52:00,
2013-09-01 03:42:00,76.0,-99.9,29.81,North,-999,-999.0,-999.0,-999,0.00,,,-99.99,,2013-09-01 07:42:00,
2013-09-01 03:52:00,75.0,-99.9,29.80,North,-999,-999.0,-999.0,-999,0.00,,,-99.99,,2013-09-01 07:52:00,
2013-09-01 04:43:00,75.0,-99.9,29.80,North,-999,-999.0,-999.0,-999,0.00,,,-99.99,,2013-09-01 08:43:00,
2013-09-01 04:52:00,76.0,-99.9,29.81,North,-999,-999.0,-999.0,-999,0.00,,,-99.99,,2013-09-01 08:52:00,
2013-09-01 05:43:00,76.0,-99.9,29.81,North,-999,-999.0,-999.0,-999,0.00,,,-99.99,,2013-09-01 09:43:00,
2013-09-01 05:52:00,74.0,-99.9,29.82,North,-999,-999.0,-999.0,-999,0.00,,,-99.99,,2013-09-01 09:52:00,
2013-09-01 06:42:00,74.0,-99.9,29.82,North,-999,-999.0,-999.0,-999,0.00,,,-99.99,,2013-09-01 10:42:00,
2013-09-01 06:52:00,75.0,-99.9,29.83,North,-999,-999.0,-999.0,-999,0.00,,,-99.99,,2013-09-01 10:52:00,
2013-09-01 07:42:00,75.0,-99.9,29.83,North,-999,-999.0,-999.0,-999,0.00,,,-99.99,,2013-09-01 11:42:00,
2013-09-01 07:52:00,77.0,-99.9,29.83,North,-999,-999.0,-999.0,-999,0.00,,,-99.99,,2013-09-01 11:52:00,
2013-09-01 08:42:00,77.0,-99.9,29.83,North,-999,-999.0,-999.0,-999,0.00,,,-99.99,,2013-09-01 12:42:00,
2013-09-01 08:52:00,76.0,-99.9,29.85,North,-999,-999.0,-999.0,-999,0.00,,,-99.99,,2013-09-01 12:52:00,
2013-09-01 09:42:00,76.0,-99.9,29.85,North,-999,-999.0,-999.0,-999,0.00,,,-99.99,,2013-09-01 13:42:00,
2013-09-01 09:52:00,79.0,-99.9,29.84,North,-999,-999.0,-999.0,-999,0.00,,,-99.99,,2013-09-01 13:52:00,
2013-09-01 10:42:00,79.0,-99.9,29.84,North,-999,-999.0,-999.0,-999,0.00,,,-99.99,,2013-09-01 14:42:00,
2013-09-01 10:52:00,82.0,-99.9,29.84,North,-999,-999.0,-999.0,-999,0.00,,,-99.99,,2013-09-01 14:52:00,
2013-09-01 11:45:00,82.0,-99.9,29.84,North,-999,-999.0,-999.0,-999,0.00,,,-99.99,,2013-09-01 15:45:00,
2013-09-01 11:52:00,80.0,-99.9,29.84,North,-999,-999.0,-999.0,-999,0.00,,,-99.99,,2013-09-01 15:52:00,
2013-09-01 12:43:00,80.0,-99.9,29.84,North,-999,-999.0,-999.0,-999,0.00,,,-99.99,,2013-09-01 16:43:00,
2013-09-01 12:52:00,81.0,-99.9,29.82,North,-999,-999.0,-999.0,-999,0.00,,,-99.99,,2013-09-01 16:52:00,
2013-09-01 13:42:00,81.0,-99.9,29.82,North,-999,-999.0,-999.0,-999,0.00,,,-99.99,,2013-09-01 17:42:00,
2013-09-01 13:52:00,79.0,-99.9,29.82,North,-999,-999.0,-999.0,-999,0.00,,,-99.99,,2013-09-01 17:52:00,
2013-09-01 14:42:00,79.0,-99.9,29.82,North,-999,-999.0,-999.0,-999,0.00,,,-99.99,,2013-09-01 18:42:00,
2013-09-01 14:52:00,78.0,-99.9,29.81,North,-999,-999.0,-999.0,-999,0.00,,,-99.99,,2013-09-01 18:52:00,
2013-09-01 15:42:00,78.0,-99.9,29.81,North,-999,-999.0,-999.0,-999,0.00,,,-99.99,,2013-09-01 19:42:00,
2013-09-01 15:52:00,77.0,-99.9,29.79,North,-999,-999.0,-999.0,-999,0.00,,,-99.99,,2013-09-01 19:52:00,
2013-09-01 16:42:00,77.0,-99.9,29.79,North,-999,-999.0,-999.0,-999,0.00,,,-99.99,,2013-09-01 20:42:00,
2013-09-01 16:52:00,76.0,-99.9,29.81,North,-999,-999.0,-999.0,-999,0.00,,,-99.99,,2013-09-01 20:52:00,
2013-09-01 17:44:00,76.0,-99.9,29.81,North,-999,-999.0,-999.0,-999,0.00,,,-99.99,,2013-09-01 21:44:00,
2013-09-01 17:52:00,77.0,-99.9,29.80,North,-999,-999.0,-999.0,-999,0.00,,,-99.99,,2013-09-01 21:52:00,
2013-09-01 18:43:00,77.0,-99.9,29.80,North,-999,-999.0,-999.0,-999,0.00,,,-99.99,,2013-09-01 22:43:00,
2013-09-01 18:52:00,75.0,-99.9,29.79,North,-999,-999.0,-999.0,-999,0.02,,,-99.99,,2013-09-01 22:52:00,
2013-09-01 19:42:00,75.0,-99.9,29.79,North,-999,-999.0,-999.0,-999,0.02,,,-99.99,,2013-09-01 23:42:00,
2013-09-01 19:52:00,74.0,-99.9,29.79,North,-999,-999.0,-999.0,-999,0.00,,,-99.99,,2013-09-01 23:52:00,
2013-09-01 20:42:00,74.0,-99.9,29.79,North,-999,-999.0,-999.0,-999,0.00,,,-99.99,,2013-09-02 00:42:00,
2013-09-01 20:52:00,76.0,-99.9,29.81,North,-999,-999.0,-999.0,-999,0.00,,,-99.99,,2013-09-02 00:52:00,
2013-09-01 21:42:00,76.0,-99.9,29.81,North,-999,-999.0,-999.0,-999,0.00,,,-99.99,,2013-09-02 01:42:00,
2013-09-01 21:52:00,76.0,-99.9,29.82,North,-999,-999.0,-999.0,-999,0.00,,,-99.99,,2013-09-02 01:52:00,
2013-09-01 22:42:00,76.0,-99.9,29.82,North,-999,-999.0,-999.0,-999,0.00,,,-99.99,,2013-09-02 02:42:00,
2013-09-01 22:52:00,74.0,-99.9,29.82,North,-999,-999.0,-999.0,-999,0.00,,,-99.99,,2013-09-02 02:52:00,
2013-09-01 23:44:00,74.0,-99.9,29.82,North,-999,-999.0,-999.0,-999,0.00,,,-99.99,,2013-09-02 03:44:00,
2013-09-01 23:52:00,76.0,-99.9,29.80,North,-999,-999.0,-999.0,-999,0.00,,,-99.99,,2013-09-02 03:52:00,